Terug naar catalogus

OPS 0856 DEB

LostPO
NORAD 24312·DEBRIS·🇺🇸 United States

Gelanceerd Aug 19, 1966 vanaf Vandenberg Space Force Base

Loading…

Volgende Passages (komende 24 uur)

TLE

VerouderdSource: Space-Track

Epoch: Dec 2, 2012, 23:47 UTC

1 24312U 66077N   12337.99149101 +.00000003 +00000-0 +10000-3 0  9995
2 24312 089.7439 349.5203 0858811 027.1749 270.4482 08.64449957552882

Volg OPS 0856 DEB in realtime met AllMySat

Download on the App Store